Date,TemperatureHighF,TemperatureAvgF,TemperatureLowF,DewpointHighF,DewpointAvgF,DewpointLowF,HumidityHigh,HumidityAvg,HumidityLow,PressureMaxIn,PressureMinIn,WindSpeedMaxMPH,WindSpeedAvgMPH,GustSpeedMaxMPH,PrecipitationSumIn
2013-3-1,52,41,35,21,17,14,54,38,28,29.85,29.76,11,3,11,0.00
2013-3-2,43,37,32,20,17,14,56,44,32,29.88,29.79,11,4,11,0.00
2013-3-3,42,34,29,18,14,11,60,45,29,29.82,29.73,10,5,10,0.00
2013-3-4,42,33,26,14,11,9,51,40,29,29.96,29.82,19,6,19,0.00
2013-3-5,48,36,26,20,14,10,59,42,28,30.20,29.96,13,3,13,0.00
2013-3-6,45,37,30,30,24,18,77,59,38,30.17,30.05,13,4,13,0.00
2013-3-7,42,34,31,29,24,17,88,68,38,30.14,30.05,13,4,13,0.04
2013-3-8,35,33,31,32,28,17,89,81,48,30.29,30.05,6,1,6,0.00
2013-3-9,56,38,26,17,15,10,63,40,20,30.47,30.26,10,2,10,0.51
2013-3-10,53,36,21,32,20,15,83,56,28,30.53,30.44,9,1,9,0.00
2013-3-11,56,43,35,38,29,24,77,59,35,30.47,30.26,6,1,6,0.00
2013-3-12,54,49,41,51,44,33,95,83,64,30.29,29.85,10,4,10,1.03
2013-3-13,47,37,32,39,21,12,89,55,27,29.96,29.91,10,2,10,0.00
2013-3-14,38,32,28,24,10,3,73,42,27,30.02,29.93,19,6,19,0.00
2013-3-15,48,34,24,20,9,0,56,36,22,30.05,29.85,14,5,14,0.00
2013-3-16,47,36,27,20,11,4,59,38,19,30.02,29.88,9,2,9,0.00
2013-3-17,40,31,24,21,5,-3,67,36,21,30.44,30.02,14,4,14,0.00
2013-3-18,44,30,18,22,5,-3,73,36,20,30.58,30.29,8,2,8,0.00
2013-3-19,44,35,30,34,27,22,82,73,54,30.29,29.76,10,3,10,0.40
2013-3-20,45,34,25,27,13,5,82,44,25,29.96,29.88,15,5,15,0.00
2013-3-21,38,31,26,19,17,10,68,55,31,29.82,29.76,6,1,6,0.00
2013-3-22,46,32,22,14,9,4,54,38,26,29.96,29.82,13,4,13,0.00
2013-3-23,47,37,27,16,11,6,58,37,22,29.99,29.85,17,5,17,0.00
2013-3-24,50,38,26,16,12,7,51,36,26,30.02,29.85,11,3,11,0.00
2013-3-25,49,38,31,20,17,14,61,42,27,29.91,29.58,10,2,10,0.00
2013-3-26,55,40,27,27,16,8,61,39,23,29.93,29.67,10,2,10,0.00
2013-3-27,57,36,24,16,13,10,65,42,20,30.02,29.93,11,1,11,0.00
2013-3-28,54,42,28,26,19,14,66,42,26,30.20,30.02,10,2,10,0.00
2013-3-29,62,46,30,30,20,14,72,38,19,30.23,30.14,10,3,10,0.00
2013-3-30,61,45,30,28,16,8,67,34,17,30.26,30.17,10,3,10,0.00
2013-3-31,62,44,26,38,20,11,76,42,19,30.26,29.79,11,2,11,0.12